Wind_Speed
16 16 15 16 17 17 17 17 17 17 18 18 18 18 17 13 8 6 7 6 7 9 10 10 10 7 9 13 15 16 17 18 19 20 20 20 19 17 16 15 14 12 11 11 11 9 7 6 4 4 3 3 3 1 1 3 3 3 5 6 6 8 9 9 8 7 6 6 5 4 6 9 14 22
17 16 15 15 15 16 16 16 16 16 16 16 17 18 19 19 14 9 8 8 9 11 11 11 11 11 13 16 17 19 21 22 23 21 19 18 17 16 15 15 14 13 13 13 12 11 10 9 7 6 5 4 4 4 3 3 4 4 4 5 6 8 8 6 7 7 7 7 7 5 4 4 5 10
18 18 17 16 15 15 15 16 16 17 17 17 17 17 17 18 17 15 10 6 9 14 14 12 13 15 16 18 21 23 23 21 20 16 14 13 14 13 13 13 13 14 14 14 14 14 12 11 9 9 8 7 6 5 5 5 6 5 4 4 5 8 11 9 7 8 7 7 7 7 6 6 5 5
19 19 19 19 18 17 16 16 16 16 17 17 18 19 19 19 18 17 14 8 9 16 17 16 18 19 20 21 22 21 20 19 17 14 12 13 14 15 15 14 14 15 16 16 16 15 14 13 13 11 11 10 8 7 6 7 9 8 6 5 5 7 9 10 10 11 10 8 7 7 7 8 9 8
19 20 21 21 22 21 20 20 19 19 18 18 18 19 20 20 19 18 16 11 9 13 16 18 20 20 20 21 19 19 20 20 19 18 18 18 18 19 19 19 18 17 17 17 17 16 16 16 15 14 13 12 11 10 9 9 9 9 8 9 11 10 10 10 10 11 11 10 9 9 7 7 9 9
18 19 21 22 22 22 23 24 24 24 23 22 21 21 21 21 21 20 19 16 11 11 14 17 18 18 19 20 20 19 20 21 21 21 21 21 21 21 21 21 21 20 18 18 18 17 17 17 17 17 16 15 14 13 12 11 11 11 11 12 13 14 14 13 12 11 12 12 11 10 10 8 9 9
19 19 20 21 21 20 22 24 25 25 25 25 24 24 24 23 23 22 21 20 16 14 15 17 19 19 18 19 20 20 21 21 21 21 21 21 21 21 20 20 21 21 20 20 19 19 19 19 19 19 18 17 17 16 15 14 15 15 15 15 15 15 15 16 15 15 14 14 13 12 12 11 10 11
21 21 22 22 20 19 20 22 23 24 25 26 25 26 25 25 25 25 23 22 20 17 16 17 18 18 18 19 20 20 21 19 18 18 20 21 22 21 20 19 19 19 20 21 21 19 19 19 20 21 21 20 19 18 18 18 18 18 18 18 17 17 17 17 17 18 17 16 16 15 15 15 14 13
21 22 23 23 21 20 21 21 22 23 24 25 25 26 26 26 26 26 25 25 23 20 18 17 18 19 20 19 18 16 15 15 16 19 21 22 22 22 21 20 19 17 17 18 19 18 18 18 19 21 21 21 21 20 20 20 20 19 19 19 19 19 19 18 18 19 19 19 18 18 18 18 18 17
23 23 24 24 23 23 23 23 22 22 23 24 25 26 26 26 26 26 26 26 25 23 21 18 17 16 15 15 15 14 15 17 19 21 23 23 21 20 20 20 18 16 15 14 15 16 16 17 18 19 21 22 22 22 21 21 21 21 20 20 20 20 20 20 20 20 20 21 21 20 20 21 21 21
24 25 25 26 25 25 26 25 24 21 20 20 21 23 24 25 25 25 25 25 25 23 21 19 18 17 17 18 20 22 22 22 21 21 21 22 22 21 20 21 19 17 16 14 13 12 13 14 15 17 19 21 22 23 23 23 22 22 22 22 21 21 20 20 20 21 21 21 22 22 22 23 23 24
24 24 25 26 26 27 27 28 27 26 24 22 20 19 20 21 23 23 23 23 23 22 20 19 20 20 21 21 21 22 21 20 21 22 18 18 23 23 22 21 19 18 18 16 14 12 11 12 13 14 17 19 22 23 24 25 25 24 24 23 23 22 22 21 21 21 22 22 23 23 24 24 25 26
23 24 24 24 25 25 26 27 27 28 28 27 26 24 20 19 20 21 22 21 21 20 19 18 19 19 19 19 18 19 21 22 22 21 15 16 23 24 23 22 20 18 18 17 15 13 12 12 12 13 15 17 20 23 25 26 26 26 25 25 24 24 24 23 23 23 23 24 24 24 24 25 25 26
26 26 25 25 24 24 24 25 25 25 26 26 28 29 27 24 22 21 20 20 19 18 17 17 17 16 18 20 19 20 26 26 21 19 16 18 22 19 16 18 20 17 15 16 17 14 11 12 13 14 16 17 18 21 24 26 27 27 26 26 26 26 25 25 25 25 25 25 25 25 25 25 25 26
29 29 28 27 26 25 25 25 25 25 25 25 25 27 28 29 28 26 24 23 22 21 19 18 19 18 19 24 24 23 26 24 20 20 18 16 16 13 10 12 16 15 12 13 15 13 12 13 15 17 18 18 18 20 22 24 25 25 26 26 27 27 27 26 26 26 26 26 26 26 26 26 25 25
30 29 30 28 26 26 25 25 25 25 25 25 24 24 25 26 29 30 31 29 27 26 23 22 23 22 23 25 26 26 25 24 21 20 20 18 17 16 13 11 14 15 12 11 13 14 16 16 17 19 20 20 19 19 20 21 22 23 24 26 27 27 27 27 26 26 27 27 27 27 27 27 27 26
28 28 29 28 27 27 25 23 24 25 25 25 25 25 24 25 26 27 30 32 31 31 29 25 26 27 26 26 29 30 26 22 19 19 19 19 16 16 15 15 16 17 14 12 13 16 18 19 19 22 22 21 20 18 18 19 18 20 22 23 25 27 27 27 26 26 26 26 27 28 28 28 28 28
24 25 26 26 26 27 26 23 22 23 24 24 25 26 26 27 27 26 27 28 29 31 31 29 30 31 29 28 32 31 24 20 20 19 19 17 16 17 20 20 21 22 19 18 15 15 20 21 21 24 24 20 19 17 16 16 16 16 19 21 23 25 25 25 25 24 23 23 26 28 29 29 29 29
18 18 19 20 20 22 23 23 22 22 23 24 25 26 27 27 27 28 28 28 28 29 28 29 31 32 31 30 32 30 26 24 26 25 24 22 20 20 22 23 24 25 23 20 15 14 21 23 20 23 24 19 18 17 15 15 15 16 18 20 21 21 22 22 22 22 22 23 24 28 30 30 30 29
13 14 15 15 16 17 19 20 20 21 22 23 24 25 26 26 26 27 26 26 29 30 29 30 31 31 30 30 30 31 29 29 30 29 27 26 22 20 19 19 22 24 21 19 16 16 20 21 18 21 21 17 17 18 16 16 16 16 18 18 18 19 20 21 22 23 24 24 24 26 29 30 31 30
11 13 14 15 17 18 18 19 19 20 21 23 25 25 26 26 26 26 25 23 25 27 29 31 32 31 31 31 31 31 30 30 31 28 25 25 22 17 13 12 16 20 19 18 16 16 18 19 17 19 19 16 17 18 18 18 17 16 17 17 17 18 19 20 21 23 24 25 25 25 27 28 30 31
8 10 12 13 15 17 18 18 19 19 21 23 26 27 27 27 28 27 25 23 23 24 25 28 29 30 31 31 32 32 32 32 31 27 26 27 23 17 13 13 14 17 20 21 16 15 17 17 14 15 15 13 16 19 18 16 14 13 14 14 15 17 18 19 21 22 23 25 26 26 27 28 29 30
10 9 10 11 12 15 17 18 18 19 21 23 25 27 27 28 30 29 25 24 24 24 25 26 28 29 30 30 31 32 32 32 31 27 27 27 23 19 17 16 12 10 14 15 11 11 14 13 12 13 9 5 9 11 8 6 6 6 8 9 11 12 14 16 18 20 22 24 25 27 28 28 29 29
11 8 9 10 11 13 14 16 18 19 21 23 24 25 26 28 29 28 25 24 25 25 26 27 27 27 28 28 29 30 31 30 28 26 25 25 22 21 20 17 13 11 12 10 6 7 10 7 8 12 10 5 4 3 2 5 7 7 8 9 10 11 12 13 15 17 20 23 25 26 28 29 29 30
10 8 8 10 11 12 13 15 16 18 19 21 22 23 25 28 30 28 26 27 27 26 27 26 26 27 27 27 27 28 29 28 26 24 23 23 22 22 21 19 16 16 17 15 12 13 12 8 7 8 8 7 6 6 8 11 10 9 9 10 11 11 11 13 15 17 19 21 23 26 28 29 30 31
11 9 9 10 12 13 14 15 16 17 18 19 20 22 23 25 27 28 28 28 27 26 26 26 25 25 25 26 27 27 27 27 26 25 25 23 22 23 24 23 20 20 20 17 16 16 14 12 12 9 6 6 7 8 10 11 11 11 9 9 11 12 12 14 16 19 21 22 23 25 27 29 30 31
10 9 10 12 14 14 15 16 16 16 16 16 17 18 19 20 22 23 25 25 25 24 25 24 24 25 24 24 25 26 27 27 25 25 25 25 23 23 24 25 25 25 24 21 19 19 16 15 16 13 10 9 7 6 6 9 11 12 11 12 14 14 14 16 17 19 20 22 24 25 25 26 28 30
11 10 12 14 14 14 14 15 15 15 17 19 19 19 20 20 19 19 19 19 20 21 21 21 21 22 23 23 24 25 26 27 25 24 24 24 24 23 23 23 23 24 24 22 21 20 19 18 17 15 13 12 9 6 6 9 11 13 15 17 17 15 15 15 16 18 20 21 23 25 25 26 27 28
14 13 13 13 13 14 15 15 16 18 18 18 18 18 19 19 19 19 17 17 16 16 17 18 18 18 20 22 23 24 26 26 25 24 22 22 22 22 22 22 22 22 22 21 20 20 20 20 19 17 16 16 14 12 11 12 12 14 15 17 17 18 16 14 15 18 20 21 22 24 25 26 26 25
12 12 13 13 14 16 17 17 17 18 18 16 15 15 15 15 16 17 17 17 17 17 17 18 20 22 23 24 24 24 25 25 25 24 23 22 22 21 21 21 22 23 22 20 19 20 21 21 20 18 18 18 17 16 16 14 13 15 16 16 16 16 14 12 14 17 18 18 20 22 24 25 25 25
10 11 13 14 14 15 16 16 16 16 16 15 14 13 12 12 12 13 14 15 16 17 19 19 19 20 22 23 24 24 24 25 25 24 23 22 22 21 20 19 20 22 21 20 19 20 21 22 21 19 19 19 18 18 17 15 14 15 17 16 13 12 12 11 10 10 10 9 9 12 15 17 19 22
11 13 13 13 13 14 15 15 14 13 13 12 10 9 9 9 9 10 11 12 14 15 17 18 18 17 17 18 21 23 23 24 24 23 22 22 22 20 18 17 17 17 18 18 17 18 19 21 20 20 19 18 18 17 16 14 14 15 16 15 12 10 9 6 2 1 1 3 5 6 5 6 9 12
14 14 13 12 11 12 13 12 10 9 8 8 7 6 6 7 7 7 8 9 11 12 13 14 16 17 17 16 17 19 20 21 21 21 21 22 21 20 18 18 17 15 15 16 17 18 19 19 19 18 17 17 18 18 15 12 14 16 15 13 10 8 5 3 3 4 4 6 8 10 11 10 9 9
16 15 11 9 9 10 11 10 8 7 6 6 6 6 5 5 6 6 7 8 9 11 12 13 15 16 16 16 16 17 18 19 20 21 22 22 21 19 19 19 18 16 15 16 17 19 18 17 17 16 16 17 18 17 15 14 15 16 14 10 9 8 6 4 4 4 4 4 6 8 10 11 11 12
16 13 9 7 8 9 10 9 8 7 6 6 7 7 6 5 5 7 7 8 9 10 11 12 13 14 15 16 17 17 18 19 19 19 20 20 20 19 19 19 18 17 16 15 16 18 18 18 16 14 12 11 11 11 12 14 15 15 13 11 10 9 8 7 5 5 4 4 5 6 8 9 10 11
15 10 7 7 7 9 10 10 8 7 6 6 6 7 7 7 7 7 8 8 8 9 10 11 12 13 13 15 17 17 18 18 18 17 17 18 18 18 18 18 18 16 15 16 18 18 18 20 20 15 9 6 5 4 7 11 13 13 12 12 11 10 10 8 7 6 5 4 4 4 6 7 8 8
12 8 6 7 8 10 11 11 9 7 7 6 6 6 7 8 8 8 8 8 8 9 9 10 12 12 13 14 15 16 16 17 17 16 16 17 18 17 16 16 16 16 16 17 19 19 20 21 22 18 9 4 3 3 4 8 11 11 11 12 13 12 12 10 8 7 6 4 4 5 6 6 6 6
8 6 6 7 9 11 12 11 9 7 7 7 6 6 6 7 7 8 8 7 7 8 8 9 10 11 12 12 13 15 16 16 16 16 16 17 17 16 15 14 15 16 17 17 18 20 21 21 22 20 13 6 3 4 5 6 8 10 11 13 14 12 12 11 9 7 6 5 6 6 6 6 5 6
5 6 7 9 11 12 12 10 8 8 7 6 6 7 7 7 7 7 8 9 9 8 8 8 8 9 9 9 10 13 15 16 16 16 16 17 17 17 16 15 14 15 16 16 16 18 20 20 21 21 18 13 9 11 12 11 9 8 9 11 12 12 12 11 10 9 8 7 8 7 6 6 5 5
6 7 9 11 11 11 11 9 8 7 6 6 6 6 6 7 6 6 7 8 10 9 9 9 8 8 7 7 7 9 13 16 17 17 17 17 17 17 17 16 15 15 14 13 13 15 18 20 20 20 20 17 14 13 13 11 9 7 7 8 10 10 10 10 10 10 10 9 8 6 6 5 5 4
8 9 10 11 10 9 8 7 6 6 5 5 5 5 5 5 5 5 6 7 8 9 10 10 10 8 8 7 6 6 8 13 15 16 16 16 17 17 17 16 15 15 13 11 12 14 17 19 19 18 16 13 11 9 8 6 6 7 7 7 7 8 9 8 8 9 10 9 8 7 6 5 4 4
10 10 11 10 8 7 6 5 5 4 4 4 4 4 4 3 3 4 4 5 7 8 10 11 11 10 9 7 6 5 6 9 13 14 15 15 15 16 16 15 14 14 13 12 12 14 15 15 16 15 13 13 13 10 6 4 7 9 9 8 8 8 8 8 8 8 8 8 7 6 5 4 3 3
10 11 10 9 7 6 5 4 3 2 3 3 3 3 3 3 3 3 4 5 7 8 10 11 12 12 10 8 6 5 3 4 9 12 14 15 15 15 14 14 14 14 13 11 11 12 12 13 13 13 12 14 14 11 7 7 12 14 13 11 11 11 11 9 9 9 9 8 7 6 5 4 2 2
9 9 9 8 7 5 4 3 1 1 1 1 1 2 2 2 2 3 4 6 7 8 9 10 12 13 13 10 8 6 4 1 4 8 12 14 15 16 15 14 14 14 12 11 11 10 10 11 12 13 13 13 13 12 10 11 13 16 16 15 15 15 14 13 11 11 11 10 8 7 5 4 3 3
9 8 8 8 7 5 4 3 1 1 1 1 1 1 2 2 2 3 4 5 6 7 8 9 10 12 14 14 13 11 8 5 4 6 10 13 14 15 15 14 13 13 12 12 12 12 11 11 11 11 11 10 9 10 12 14 16 17 17 16 16 16 16 15 13 12 10 9 8 7 5 4 4 4
Wind_Direction
264 263 262 261 260 259 257 255 253 252 253 254 256 257 256 258 268 282 281 276 281 289 289 290 297 298 294 301 303 303 306 307 307 307 305 305 303 301 299 297 298 299 300 304 301 295 294 288 292 310 311 305 283 245 330 296 251 264 271 254 256 268 269 266 267 275 277 265 249 217 212 222 226 224
264 262 260 259 259 256 253 252 250 248 249 250 254 257 257 256 254 260 277 275 271 283 290 286 289 295 296 301 304 305 308 310 311 312 310 306 304 302 298 291 289 291 290 290 290 288 284 280 282 289 287 287 276 256 271 270 231 231 264 253 248 256 257 257 259 259 261 262 256 250 241 231 235 236
263 261 260 258 257 256 253 251 249 248 247 248 251 255 258 258 255 257 267 272 268 275 283 285 285 291 295 298 302 304 306 311 315 318 315 308 303 299 295 290 285 285 285 284 284 283 281 278 276 275 273 270 269 261 258 253 229 219 253 270 270 265 252 242 243 243 242 244 241 239 241 238 241 269
261 261 260 258 256 255 253 250 249 248 247 246 247 250 255 258 261 264 265 267 275 274 276 283 286 287 293 296 298 300 303 306 309 308 304 301 298 293 289 289 286 284 284 282 282 281 279 277 272 269 268 264 262 259 254 251 238 229 243 258 261 270 259 245 244 247 241 232 228 228 235 244 248 261
261 260 260 259 258 256 254 253 252 250 249 247 247 248 252 255 259 262 263 265 278 276 274 280 283 285 291 293 294 296 298 299 298 294 289 288 289 288 286 285 284 285 283 281 282 281 278 275 272 268 264 259 256 253 248 249 247 245 248 248 249 259 260 249 249 257 254 243 232 227 228 235 240 250
263 262 261 260 259 257 257 256 256 255 254 252 252 252 253 255 255 256 259 264 273 277 276 279 281 284 287 289 291 293 293 293 293 291 289 289 289 289 287 284 282 282 282 281 281 281 278 273 269 265 262 257 255 253 252 250 249 246 242 240 245 254 259 259 259 262 263 258 247 235 234 234 230 231
261 261 261 261 261 259 256 255 255 255 254 253 252 252 251 253 254 254 256 260 264 271 274 275 278 281 283 284 287 289 290 290 290 288 289 291 291 290 289 287 284 281 280 279 279 280 277 271 266 263 260 259 256 254 253 250 247 246 243 243 246 250 257 261 263 264 262 262 256 244 240 243 239 229
258 258 258 259 260 259 256 255 254 253 252 251 249 248 248 248 251 252 253 255 258 264 269 270 272 277 280 280 282 286 288 289 287 288 291 293 292 292 291 289 287 284 279 277 278 278 275 269 265 261 258 258 257 255 254 253 252 252 251 252 252 254 257 258 260 263 262 262 259 250 245 246 247 241
257 255 254 255 254 253 252 253 254 254 254 252 249 247 247 246 247 248 247 249 253 257 262 266 271 274 274 275 277 281 285 289 289 289 291 292 292 292 291 290 289 287 281 276 274 273 270 265 261 258 256 255 254 254 254 254 254 254 254 255 256 256 259 259 260 261 262 263 261 255 250 249 250 250
257 255 254 253 251 249 249 250 252 255 255 253 250 248 247 246 245 245 243 244 248 252 255 261 269 269 266 273 279 278 282 288 290 291 292 292 290 288 289 291 291 290 285 278 271 266 262 258 255 253 251 250 250 250 250 251 251 252 253 254 255 256 257 260 262 263 263 264 264 261 256 253 252 251
259 257 255 253 251 248 247 247 247 247 248 250 251 251 251 248 244 243 244 243 243 244 247 253 258 260 264 274 278 277 280 284 283 283 286 289 290 288 287 287 290 292 290 286 281 271 262 257 253 250 247 246 246 245 246 247 248 249 249 250 252 254 256 257 260 263 265 265 265 265 262 258 255 252
262 259 257 255 253 250 249 247 245 243 242 245 250 252 253 250 244 241 242 241 240 242 246 248 251 256 262 266 271 275 279 279 276 275 275 279 285 289 289 287 289 292 291 288 284 277 270 265 258 255 252 247 245 243 243 243 244 245 247 248 249 251 253 254 256 259 261 264 265 265 263 261 258 255
265 262 259 257 256 253 253 252 248 245 243 243 244 247 247 247 244 241 240 242 242 243 245 245 247 254 258 259 261 266 267 266 269 276 276 272 276 281 285 289 292 291 288 286 283 280 279 277 275 271 263 253 247 245 242 241 242 243 244 245 246 247 249 251 253 254 256 259 261 262 262 262 260 258
266 264 261 260 259 256 255 255 251 245 243 242 242 243 245 245 244 241 238 237 238 239 240 240 241 246 254 257 252 253 261 265 270 276 273 266 269 274 280 288 293 292 286 280 278 281 286 287 287 285 277 267 256 248 243 241 241 242 242 243 244 244 246 248 250 251 252 253 255 257 259 260 260 260
265 264 261 260 260 258 254 254 254 248 243 244 243 243 244 244 242 240 236 234 234 236 238 241 242 241 249 256 254 253 260 264 265 266 264 262 272 282 285 286 292 296 292 276 271 279 292 292 286 283 283 280 270 255 245 240 239 240 241 240 241 241 242 245 246 247 247 247 249 252 254 256 258 258
264 264 262 258 257 259 258 254 254 251 247 245 245 246 246 244 241 239 237 236 235 235 236 239 241 241 245 253 256 254 256 258 259 260 260 261 270 277 273 267 275 287 290 276 268 278 290 291 284 279 281 284 279 264 249 243 240 238 238 238 238 238 239 240 241 242 243 244 244 246 248 251 253 254
259 261 261 256 252 257 260 257 254 253 252 250 247 247 247 247 247 244 240 238 237 237 235 234 239 243 243 247 254 255 254 254 255 254 254 255 256 261 261 259 269 283 289 280 274 279 286 288 284 279 279 284 282 267 252 247 244 242 241 240 239 239 239 239 240 240 241 242 243 244 245 247 248 250
255 261 263 259 256 254 255 256 255 252 252 252 251 250 249 248 249 249 247 244 241 238 235 234 241 247 245 246 255 258 254 248 248 248 249 252 252 257 264 270 277 282 282 278 278 279 282 283 279 276 278 281 280 271 257 251 249 246 244 242 242 242 241 241 241 241 240 241 244 246 246 246 247 247
252 260 265 264 262 256 253 258 259 255 253 250 249 251 251 252 252 250 249 248 246 244 240 238 244 250 251 252 258 261 256 250 251 252 254 259 261 265 272 277 279 280 278 275 271 269 277 279 272 272 277 277 277 276 267 259 254 248 245 244 244 243 241 241 240 240 240 241 245 248 249 248 248 247
257 257 262 264 261 255 253 258 259 254 251 249 247 248 250 253 255 253 249 246 245 245 245 244 246 250 252 253 257 259 257 254 257 258 258 261 259 259 267 271 271 275 278 273 259 252 268 274 267 267 274 274 274 275 270 265 260 254 252 250 246 245 243 242 241 240 241 243 244 247 250 249 249 248
266 261 264 267 265 261 260 265 263 252 243 242 245 248 250 251 252 254 254 251 246 244 244 246 247 249 251 252 253 256 254 254 255 252 248 251 247 242 250 258 263 269 272 272 259 246 258 266 257 258 268 268 269 272 270 267 265 260 259 255 249 248 247 246 246 245 243 244 244 245 247 248 248 249
258 265 269 269 267 268 271 273 270 256 242 239 241 244 247 247 248 253 256 255 253 250 246 247 248 250 252 253 255 258 258 258 258 249 243 247 240 225 232 248 259 267 269 270 263 249 258 262 245 246 259 260 264 270 270 268 266 261 260 257 252 251 249 248 249 248 247 246 245 244 245 246 248 248
243 255 264 263 264 268 270 269 264 256 247 241 239 240 240 240 245 252 254 251 253 253 250 250 252 252 254 255 257 260 262 264 265 260 257 256 241 222 230 243 249 264 272 272 261 247 257 258 237 237 244 254 270 270 263 264 271 269 270 267 260 257 255 254 253 251 250 249 248 247 245 244 246 247
234 254 272 280 284 276 269 268 267 264 258 250 244 238 232 234 245 253 252 247 248 250 250 252 254 255 257 257 257 260 262 265 266 263 263 261 246 231 233 238 236 245 258 263 258 260 267 265 244 240 233 229 263 264 253 282 289 293 291 283 279 278 275 272 268 263 259 254 251 249 247 245 243 244
243 268 280 292 297 285 276 278 276 272 269 264 258 249 239 240 247 250 248 248 249 248 249 251 252 253 256 256 256 259 263 266 266 262 260 261 252 240 238 237 237 245 254 257 260 265 265 261 258 250 233 234 252 264 278 290 297 303 302 296 293 293 290 285 283 280 276 268 259 251 248 246 243 241
256 267 279 293 295 286 284 286 280 273 270 266 264 261 255 252 252 250 248 248 247 244 244 246 247 248 249 250 251 256 262 265 265 260 257 258 253 245 242 241 240 244 250 254 257 260 257 253 257 256 241 243 256 263 273 289 304 310 311 308 305 302 297 292 288 286 283 278 269 259 250 246 244 241
270 276 289 294 290 284 286 288 284 282 282 279 274 272 269 265 261 257 254 251 246 243 241 240 241 243 244 244 245 249 256 263 263 256 251 252 252 250 247 246 246 247 249 251 255 259 257 255 254 251 248 254 260 262 268 282 297 306 310 308 307 304 299 294 290 288 285 279 274 268 259 251 247 243
277 282 288 288 285 287 291 293 290 288 287 286 284 282 278 275 271 269 265 258 252 247 242 239 239 240 240 240 241 245 254 263 267 261 253 252 254 255 253 252 252 254 255 253 254 256 255 253 251 250 256 261 258 255 266 276 285 297 305 308 310 310 306 299 292 289 287 281 274 269 264 257 250 243
267 273 280 283 286 291 294 293 291 290 288 287 287 285 281 277 273 271 269 265 262 257 252 250 249 247 246 244 245 249 257 262 265 263 259 256 256 256 254 251 250 251 251 250 248 249 248 249 248 250 258 264 260 257 264 272 277 286 295 301 305 309 311 304 293 289 288 282 274 266 262 259 253 246
261 269 276 280 284 290 294 294 292 292 293 293 294 293 290 281 274 269 267 265 263 261 261 260 256 252 250 250 250 253 255 255 255 257 256 254 254 252 249 246 244 244 242 242 244 244 243 244 247 250 254 259 261 260 261 266 273 281 287 292 297 303 308 304 299 296 291 282 271 261 257 256 254 250
264 274 277 278 281 288 292 292 291 290 289 290 291 291 288 282 275 269 265 262 259 258 260 264 264 259 253 249 246 245 246 247 250 252 250 247 248 247 243 239 239 241 240 240 244 246 243 243 245 247 249 254 257 260 263 264 266 274 283 288 289 291 296 298 301 300 289 272 249 236 236 238 240 241
273 275 271 272 280 288 291 290 286 282 280 283 286 285 280 276 270 266 263 261 261 262 264 268 273 273 267 256 245 240 238 240 243 245 244 242 242 241 235 226 227 234 239 241 243 246 245 244 243 244 248 252 253 256 262 264 264 269 278 284 282 279 280 279 283 295 221 148 120 116 135 171 194 208
268 257 251 260 277 288 291 289 287 286 284 283 283 283 283 280 274 270 268 268 269 272 275 276 275 273 272 266 254 243 236 235 237 240 240 237 236 234 226 220 221 228 233 235 238 240 242 243 242 243 247 249 248 249 252 256 263 269 275 276 268 258 247 220 152 126 132 128 107 85 76 82 98 116
246 231 231 255 275 283 284 283 286 297 311 317 315 312 308 299 293 291 288 285 283 281 279 279 277 272 266 261 255 247 239 235 234 234 233 232 232 228 218 215 222 229 229 231 234 232 230 233 236 236 237 238 239 242 243 245 255 264 268 264 249 228 203 172 144 135 138 136 118 95 77 65 63 73
221 214 224 250 267 273 272 272 279 291 307 321 323 323 325 321 317 314 309 303 297 291 286 283 279 273 264 257 252 246 242 238 232 226 224 226 229 227 217 212 219 227 227 227 229 225 220 218 216 210 210 216 222 232 239 241 248 254 252 243 232 214 191 168 151 146 140 126 115 101 84 69 57 55
206 207 225 244 260 265 260 260 269 279 288 300 311 320 324 325 327 328 323 315 305 299 298 293 284 276 267 259 252 246 244 240 231 221 218 222 227 226 218 213 217 223 223 223 225 221 213 208 201 191 181 184 195 216 237 237 239 244 239 229 221 205 186 172 163 158 148 128 122 117 99 82 67 59
197 205 226 246 257 258 256 257 265 270 275 283 293 306 314 319 330 337 333 324 310 301 298 292 284 279 273 264 253 246 245 242 230 217 216 223 227 224 216 212 214 218 221 224 224 219 211 203 198 193 188 187 194 206 220 223 227 233 231 224 215 200 185 178 171 164 156 136 128 135 123 103 85 73
204 215 232 246 252 252 253 257 264 269 272 276 285 297 307 316 331 341 340 338 331 317 307 300 294 289 284 272 255 243 240 239 233 223 217 219 220 217 212 210 212 216 220 221 218 216 212 204 198 198 197 187 183 202 202 198 207 218 221 218 211 198 188 184 177 167 160 146 134 132 128 119 107 92
227 236 244 247 248 251 253 255 261 268 271 276 287 298 307 317 332 343 347 351 351 342 331 325 318 309 298 284 263 243 233 229 229 226 220 216 215 212 209 209 212 213 211 209 208 210 210 206 203 204 203 199 206 220 215 201 192 199 209 211 206 199 196 193 185 174 165 157 146 139 136 131 119 104
253 256 250 245 246 249 251 253 259 264 271 279 286 294 304 314 327 343 353 355 354 354 354 349 340 331 321 304 282 258 239 228 225 223 218 212 210 208 207 207 206 201 195 193 197 203 206 207 208 208 207 208 215 219 209 190 171 170 184 198 201 198 196 196 192 183 173 165 159 154 153 148 131 116
254 247 241 240 243 243 242 247 255 262 271 278 280 286 294 305 324 342 355 358 359 2 5 2 356 354 346 328 307 285 254 232 221 216 212 207 206 208 209 205 197 190 185 185 192 201 206 210 209 207 206 204 194 179 167 155 147 152 161 172 184 188 185 185 188 187 180 175 171 162 155 154 145 120
241 234 233 233 231 227 229 240 252 263 276 280 281 289 295 302 324 341 350 359 7 14 15 10 7 7 1 346 331 316 274 235 218 212 209 206 203 201 200 195 188 182 180 184 194 202 205 205 203 203 202 194 183 174 169 166 161 154 147 143 151 162 167 168 172 172 169 173 179 174 159 152 150 137
232 225 222 218 214 212 218 230 243 263 283 288 292 300 303 308 327 341 353 2 12 21 22 18 16 18 16 9 3 360 330 232 216 211 205 199 191 182 177 176 178 177 178 183 189 195 198 198 199 200 196 191 192 195 189 168 161 158 151 143 140 142 145 150 158 162 160 158 165 172 170 164 160 175
223 214 208 203 200 200 202 208 227 282 319 340 339 330 327 332 343 355 6 12 16 22 26 24 24 26 27 28 30 31 40 95 190 199 193 186 180 173 168 167 167 168 171 174 177 182 190 193 192 191 189 188 194 197 188 170 162 158 154 148 143 141 142 145 152 159 162 159 154 154 163 170 164 154
212 204 197 191 187 184 183 178 155 95 68 54 46 31 20 17 11 12 21 23 21 23 28 30 29 30 34 37 39 39 45 65 112 154 166 167 166 166 165 163 161 161 167 173 173 170 171 173 174 177 178 177 181 188 183 170 161 156 153 150 147 146 147 150 154 155 156 158 161 162 165 173 172 166
Height
791 791 791 791 791 791 792 792 793 793 794 795 795 795 796 796 794 791 788 785 785 785 786 786 785 785 786 785 785 786 785 786 787 787 787 787 787 788 788 789 789 790 790 790 790 790 790 791 792 793 794 795 795 796 798 799 799 801 801 802 803 804 804 805 805 805 805 806 808 809 810 812 813 815
788 789 789 789 789 789 790 790 791 791 792 792 793 793 793 794 793 791 788 784 783 785 784 784 784 783 783 783 783 783 784 784 785 785 785 786 786 786 786 787 787 787 788 788 788 788 789 790 791 791 792 792 793 794 795 797 797 798 799 800 801 803 803 803 804 804 805 806 806 808 809 810 811 813
786 786 787 787 787 787 788 788 788 789 790 790 791 791 791 791 790 790 789 783 781 784 783 782 783 782 781 782 781 781 782 782 783 783 783 784 784 784 784 784 784 785 785 786 786 786 787 788 789 790 790 791 791 792 794 795 796 797 798 799 800 801 802 802 802 803 804 805 806 807 808 809 810 812
783 783 784 784 785 785 786 786 786 787 787 787 788 788 788 789 788 788 788 783 780 783 783 781 781 781 780 780 780 780 780 780 781 781 781 781 781 781 781 781 781 782 782 783 783 784 785 786 787 788 788 789 790 791 792 793 795 796 797 798 799 799 801 801 800 802 803 804 805 806 807 808 809 810
780 780 781 781 782 783 783 783 784 784 785 785 785 786 786 786 786 786 786 783 780 781 782 781 780 780 780 779 779 779 778 778 778 779 779 779 779 778 778 777 778 779 779 780 781 782 783 784 784 785 786 787 788 789 790 791 793 794 795 796 796 797 799 799 799 800 802 803 803 804 806 807 808 809
777 777 778 778 778 780 780 780 781 781 782 783 783 783 784 783 784 784 784 782 781 780 780 780 779 779 779 777 777 777 777 776 776 776 775 776 776 776 775 775 775 776 776 777 778 779 779 780 781 782 783 784 785 787 788 789 790 792 793 793 794 796 796 797 797 799 800 801 802 803 804 806 807 808
774 774 775 775 775 776 777 777 778 778 779 779 780 780 781 781 781 782 782 781 780 778 778 778 778 777 777 776 775 775 775 774 774 773 773 773 773 773 773 772 772 773 773 774 775 775 776 777 778 779 780 781 782 784 785 786 787 788 790 791 792 793 794 795 796 797 798 799 800 801 802 804 806 807
771 771 771 771 773 774 773 774 774 775 775 776 776 777 778 778 778 779 779 779 778 777 776 776 776 776 776 775 774 773 772 772 772 771 770 770 769 769 770 770 770 770 770 770 771 772 772 773 774 775 777 778 779 780 781 783 784 785 786 788 789 790 792 793 794 795 796 797 798 799 800 802 804 805
767 768 768 768 770 771 770 770 771 772 772 773 773 773 774 775 775 775 776 776 776 776 774 774 774 774 774 773 772 772 771 770 769 769 768 767 767 766 766 767 767 767 767 767 768 768 769 770 770 771 773 774 775 777 778 779 780 781 783 784 786 787 788 790 791 793 794 794 796 797 798 800 801 803
764 764 764 765 766 767 767 767 768 768 769 769 770 770 770 771 772 772 773 773 773 773 772 772 772 772 772 771 770 770 770 769 768 766 765 765 764 764 764 763 763 764 764 764 765 765 765 766 767 768 769 770 771 773 774 775 776 778 779 780 782 783 785 786 787 789 790 792 793 795 796 797 799 801
760 760 760 761 762 763 763 764 765 766 766 766 767 767 767 768 769 769 770 770 770 770 770 770 770 770 770 769 768 768 768 768 766 765 764 762 761 761 761 760 760 761 761 761 762 762 763 763 764 765 765 766 768 769 770 771 773 774 775 776 778 779 781 782 784 785 787 788 790 791 793 795 796 798
756 756 756 757 757 758 759 759 761 762 763 763 764 764 765 765 766 766 767 767 768 768 767 767 767 767 767 767 767 766 766 765 763 764 764 762 759 758 757 757 757 758 758 758 759 759 760 760 761 762 762 763 764 765 766 767 769 770 772 773 774 776 777 779 780 782 783 785 786 788 790 792 794 795
752 752 752 752 753 754 754 755 756 757 758 760 760 761 762 763 763 763 764 765 765 765 765 765 765 765 764 764 765 765 763 762 761 762 763 761 758 756 755 754 754 755 754 755 756 756 757 758 758 759 759 760 761 761 762 763 765 766 768 770 771 773 774 775 777 778 780 781 783 784 786 789 790 792
747 747 748 748 749 750 751 751 752 754 755 756 756 757 758 759 760 761 761 762 762 763 763 762 762 762 760 760 762 761 759 758 759 760 760 759 756 755 754 752 750 751 752 752 752 753 754 755 755 756 756 756 757 758 758 760 761 763 765 766 768 769 770 771 773 774 776 777 779 780 782 784 785 787
743 743 743 744 745 746 747 748 748 750 751 752 752 753 754 755 756 757 757 758 759 759 759 759 759 759 757 756 757 757 756 757 758 758 758 757 755 754 754 752 749 748 749 750 750 750 752 752 752 752 752 752 753 754 754 756 757 759 761 762 764 765 766 768 769 770 772 773 774 776 777 779 781 782
739 739 739 740 741 742 743 743 744 745 747 748 749 749 750 751 751 751 751 752 753 754 755 755 755 755 754 753 753 753 753 754 755 755 755 755 754 753 753 751 748 747 747 748 748 747 748 749 749 748 748 749 749 750 751 752 754 755 757 758 759 761 762 764 765 766 768 769 770 772 773 775 776 778
736 736 736 737 738 738 739 740 741 742 742 744 745 746 746 747 747 747 747 747 747 748 749 750 750 750 751 750 748 748 750 752 753 753 752 752 752 751 750 748 747 746 747 747 746 745 745 746 745 744 744 745 746 746 747 748 750 751 753 754 755 757 758 759 761 762 764 765 766 768 769 771 772 774
732 732 733 733 734 735 736 736 737 738 739 739 741 741 742 742 743 743 743 743 744 744 744 745 744 744 746 746 743 745 748 750 749 749 749 749 749 749 747 746 745 745 745 745 744 742 742 742 742 740 740 742 742 743 744 745 747 748 749 750 751 752 754 755 757 758 760 761 762 763 765 767 768 770
730 730 730 731 731 732 733 733 733 734 735 736 737 737 737 738 738 739 739 740 740 741 741 741 740 740 742 742 741 742 745 746 745 745 745 746 747 746 745 744 742 741 741 743 743 741 738 739 739 736 736 738 739 740 741 742 743 744 745 746 747 748 750 751 753 754 756 757 758 759 760 762 764 765
728 728 728 728 729 729 730 730 730 731 732 733 733 734 734 734 734 734 735 736 737 737 738 737 736 737 738 739 739 739 741 741 741 742 743 743 744 744 743 741 738 737 738 739 741 739 736 736 736 734 734 736 736 736 737 738 739 740 741 743 744 745 746 747 749 750 751 753 754 755 756 757 759 761
727 727 727 727 727 727 727 728 728 729 730 730 730 730 730 731 731 730 731 732 733 734 734 734 734 734 735 735 736 736 737 737 738 739 739 739 739 740 739 737 736 735 735 735 737 736 734 733 734 732 732 733 733 733 734 735 736 737 738 739 740 741 742 743 744 746 747 748 750 751 752 753 754 756
725 725 725 725 725 725 725 725 726 727 727 727 727 727 727 728 727 726 727 729 729 730 731 731 731 731 731 732 732 732 732 733 734 736 735 733 735 736 735 734 734 733 731 731 733 733 731 730 731 731 730 731 731 730 731 732 733 734 735 735 736 737 738 739 740 742 743 744 745 747 748 749 750 752
723 723 723 723 723 723 723 723 723 723 723 723 723 723 724 724 722 723 724 725 725 726 727 727 727 727 727 728 728 728 728 728 729 731 731 730 731 732 731 731 732 731 728 728 730 730 728 728 729 729 729 729 729 728 729 730 731 731 732 733 733 734 735 736 737 738 739 740 741 742 744 745 746 748
721 721 721 721 721 721 720 720 720 719 719 719 719 719 720 719 718 719 721 721 722 722 722 722 723 723 723 724 724 724 724 724 724 725 726 726 727 727 727 728 729 728 726 726 728 728 727 727 727 727 728 728 728 727 728 728 729 730 730 730 731 731 732 732 733 734 734 735 736 737 739 740 742 743
719 719 719 719 719 719 718 717 717 717 716 716 716 715 715 714 714 716 717 717 718 719 719 719 720 720 720 720 720 720 720 720 720 720 721 722 723 724 724 725 725 725 724 725 727 727 727 727 727 726 726 727 727 727 727 726 727 728 728 728 728 728 729 730 730 730 730 730 731 732 733 734 737 738
717 717 717 717 717 716 716 715 714 714 713 713 712 711 711 711 711 712 712 713 714 714 715 715 715 716 716 716 716 716 716 716 716 716 717 718 719 720 720 721 722 722 722 724 725 725 726 726 725 725 725 725 725 725 725 724 724 725 725 726 726 726 727 727 726 726 726 726 726 726 727 728 730 732
715 715 715 714 714 714 713 712 712 711 710 709 708 708 708 708 708 709 709 709 710 710 710 711 711 711 711 712 712 712 712 712 712 712 713 713 715 716 717 718 718 719 720 722 723 723 723 724 724 724 724 724 724 724 724 723 722 722 723 723 723 724 724 724 723 722 722 722 721 721 722 723 725 726
712 712 712 712 712 711 711 710 709 708 707 706 706 705 705 704 705 705 705 705 706 706 706 706 706 706 707 707 707 708 708 708 708 709 710 710 711 713 714 715 715 716 717 718 719 720 721 721 722 723 723 723 723 723 723 722 721 721 721 720 720 721 721 721 720 719 718 718 718 718 718 718 719 721
710 710 710 710 709 709 708 708 706 705 705 704 703 702 702 701 701 701 702 702 702 702 702 702 702 703 703 703 703 704 705 705 705 706 707 707 708 709 710 711 712 713 713 715 716 717 718 718 719 721 721 722 722 721 721 721 720 720 720 719 718 718 718 718 717 716 715 715 714 714 714 714 715 716
708 708 707 707 707 706 706 705 703 703 702 701 701 700 699 698 698 698 698 699 699 699 699 699 699 699 699 700 700 701 702 702 702 703 704 704 705 706 707 708 708 709 710 711 712 713 714 715 717 718 719 719 719 719 719 719 719 719 719 719 718 717 716 716 715 713 712 711 711 711 711 711 711 712
705 705 705 705 704 704 703 702 701 700 700 699 698 698 697 696 696 696 696 696 696 696 696 696 696 695 696 696 696 697 698 698 698 700 701 701 702 703 704 705 705 705 707 708 709 710 711 712 714 715 715 716 716 717 717 717 717 717 717 717 717 716 715 715 713 712 711 709 708 708 708 708 708 708
702 702 702 702 702 701 701 700 699 699 698 697 696 695 695 695 694 694 694 694 694 694 693 693 693 693 693 692 693 693 694 694 695 696 697 698 699 700 701 702 702 703 704 705 706 707 708 709 711 712 713 713 714 714 715 715 715 715 715 715 715 715 714 714 713 712 710 709 709 708 707 706 706 705
699 699 699 699 699 699 698 698 697 697 696 695 695 694 693 693 693 692 692 692 691 691 691 691 690 690 690 690 690 690 690 691 692 693 694 695 696 697 698 698 699 701 701 702 703 704 705 706 708 709 710 711 712 712 713 713 713 713 713 713 713 713 713 713 712 711 711 710 709 709 708 707 705 704
696 696 696 697 697 697 697 696 696 695 694 694 693 692 692 691 691 691 690 690 689 688 688 688 688 688 688 687 687 687 687 688 689 690 691 692 693 694 694 695 696 698 699 700 701 701 703 704 706 707 708 709 710 710 711 711 711 711 711 712 712 712 712 712 711 711 710 710 709 709 708 708 707 705
692 693 694 694 695 695 695 695 695 694 693 693 692 691 691 690 690 689 688 688 687 686 686 686 685 685 685 685 685 685 685 685 686 686 688 689 690 691 691 692 693 695 696 697 698 699 700 702 704 705 706 707 708 708 708 709 709 709 710 710 711 711 711 711 711 710 710 710 709 709 709 708 708 707
689 690 691 692 693 693 693 694 693 692 692 692 691 690 690 689 689 688 687 686 686 685 684 684 683 683 683 682 682 682 682 682 683 683 685 686 687 688 688 689 690 692 693 694 695 696 698 699 701 703 704 705 706 706 706 707 707 708 708 709 709 710 710 710 710 710 710 710 710 709 709 709 708 708
687 688 689 690 691 691 692 692 692 691 691 691 690 690 689 688 688 687 686 685 684 683 683 682 681 681 680 679 679 679 680 680 680 681 682 683 684 685 685 686 688 689 690 692 693 694 695 697 698 700 701 703 704 704 705 705 706 706 707 707 708 708 708 708 710 710 710 710 710 709 709 709 709 709
685 685 687 688 689 689 690 690 690 690 690 689 689 688 688 687 686 686 685 684 683 682 681 680 679 678 678 677 677 677 677 678 678 678 679 680 681 682 683 684 685 686 688 689 690 691 693 694 695 697 698 700 701 702 703 704 705 704 705 705 706 707 707 708 709 710 710 710 710 710 710 710 710 710
683 684 685 686 687 687 688 689 689 688 688 688 687 687 686 686 685 685 684 682 681 680 679 678 677 677 676 675 675 674 674 675 676 676 677 678 679 680 680 682 683 684 685 687 688 689 690 692 693 694 695 696 697 698 699 701 702 703 703 703 704 705 706 707 708 709 710 710 711 711 711 711 711 711
681 683 684 684 685 686 686 687 687 687 687 687 686 686 685 685 685 684 683 682 680 679 678 677 676 675 674 673 672 672 672 672 673 673 674 675 676 677 678 680 681 682 683 685 686 687 688 689 690 692 693 694 695 696 697 699 700 702 702 703 703 704 705 706 707 708 709 710 710 711 711 711 711 712
680 681 683 683 684 684 685 685 686 686 686 685 685 685 685 684 684 683 682 681 680 679 677 676 675 674 672 672 671 670 670 670 670 671 672 673 674 675 676 677 679 680 681 683 684 685 686 687 689 690 692 693 694 695 696 698 699 701 701 702 703 703 704 705 706 707 708 709 710 710 711 711 712 712
679 680 681 682 682 683 683 684 685 684 684 684 684 684 684 683 683 683 682 681 679 678 677 676 674 673 671 670 670 669 668 668 668 669 670 671 672 673 674 676 677 678 680 681 682 683 685 686 688 689 690 692 693 694 695 696 698 699 701 702 702 702 703 704 705 706 707 708 709 710 710 711 711 712
678 679 680 680 681 682 682 683 683 683 683 683 683 683 683 682 682 682 681 680 679 677 676 676 674 672 671 670 669 668 667 667 667 668 668 669 670 671 673 674 676 677 679 680 681 683 684 685 687 688 689 690 691 692 693 694 696 698 700 701 702 702 703 704 705 706 706 707 708 709 710 710 711 711
677 678 679 679 680 681 682 682 682 682 682 682 682 682 682 681 681 681 680 679 678 677 676 675 674 673 671 670 669 668 667 667 667 667 667 668 669 670 672 673 675 677 678 680 681 683 684 685 686 687 688 689 690 691 692 693 695 697 698 700 701 702 702 704 705 706 707 707 708 709 710 710 711 711
677 677 678 678 679 680 681 682 682 682 682 682 681 681 681 681 681 680 679 679 678 677 676 675 675 673 672 671 670 669 668 667 667 667 668 668 669 670 672 673 674 676 678 679 680 682 683 684 685 687 688 689 689 690 691 692 694 696 698 699 701 701 702 704 705 706 707 708 708 709 710 711 711 711